Temp
10 10 9 9 9 9 8 8 9 8 8 8 8 8 8 8 9 9 9 9 9 9 8 8 8 9 9 9 9 9 9 9 9 9 9 9 9 10 10 10 10 10
10 10 9 9 9 9 8 8 8 8 8 8 8 8 8 8 8 8 8 9 9 8 8 8 8 8 9 9 9 9 9 9 9 9 9 9 9 10 10 10 10 10
10 9 9 9 8 8 8 8 8 8 8 8 8 8 8 8 8 8 8 8 8 8 8 8 8 8 8 8 9 9 8 8 8 9 9 9 9 9 10 10 10 10
10 9 9 9 9 9 8 8 8 8 8 8 8 8 8 8 8 8 8 8 8 8 8 8 8 8 8 8 8 8 8 8 8 8 8 9 9 9 9 9 9 9
10 9 9 9 9 9 9 9 8 8 8 8 8 8 8 8 8 8 8 8 8 8 8 8 8 8 8 8 8 8 8 8 8 8 8 8 9 9 9 9 9 9
10 9 9 9 9 9 9 8 8 8 8 8 8 8 8 8 8 8 8 8 8 8 7 7 7 7 7 7 7 7 7 7 7 7 8 8 8 9 9 9 9 9
10 9 9 9 9 9 8 8 8 8 8 8 8 8 8 8 8 8 8 7 7 7 7 7 7 7 7 7 7 7 7 7 7 7 7 8 8 8 8 8 8 8
9 9 9 9 9 8 8 8 8 8 8 8 8 8 7 7 7 7 7 7 7 7 7 7 7 7 7 7 7 6 7 7 7 7 7 7 7 8 8 8 8 8
9 9 9 9 8 8 8 8 8 8 8 8 7 7 7 7 7 7 7 7 7 7 7 7 7 7 7 6 6 6 6 7 7 7 7 7 7 7 8 8 8 8
9 9 9 9 8 8 8 8 8 8 7 7 7 7 7 7 7 7 7 7 7 7 6 6 6 7 6 6 6 6 6 6 6 6 6 7 7 7 7 7 7 8
9 9 9 8 8 8 8 8 8 7 7 7 7 7 7 7 7 6 6 6 6 6 6 6 6 6 6 6 6 6 6 6 6 6 6 6 6 7 7 7 7 7
9 9 9 8 8 8 8 8 7 7 7 7 7 7 6 6 6 6 6 6 6 6 6 6 6 6 6 6 6 6 6 5 6 6 6 6 6 6 7 7 7 7
9 9 8 8 8 8 8 8 7 7 7 7 6 6 6 6 6 6 6 6 6 6 6 6 6 6 6 6 6 5 5 5 5 5 6 6 6 6 7 7 7 7
9 9 8 8 8 8 8 8 7 7 7 6 6 6 6 5 5 5 5 5 5 5 5 5 5 5 5 5 5 5 5 5 5 5 6 6 6 6 6 6 7 7
9 9 8 8 8 8 8 7 7 7 7 6 6 5 5 5 5 5 5 5 5 5 5 5 5 5 5 5 5 5 5 5 5 5 5 6 6 6 6 6 6 6
9 9 8 8 8 8 8 7 7 7 7 6 6 5 5 5 5 5 5 5 5 5 5 5 5 5 5 5 5 5 5 5 5 5 5 5 5 5 6 6 6 6
9 9 9 8 8 8 8 7 7 7 6 6 6 5 5 5 5 5 5 5 5 5 5 5 5 5 5 5 5 5 5 5 5 5 5 5 5 5 5 6 6 6
10 9 9 9 8 8 8 8 7 7 7 6 6 5 5 5 5 5 5 5 5 5 5 5 5 5 5 5 5 5 5 5 5 5 5 5 5 5 5 5 5 6
10 9 9 9 9 8 8 8 7 7 7 7 6 6 5 5 5 6 6 5 5 5 5 5 5 5 5 5 5 5 5 5 5 5 5 5 5 5 5 5 5 5
10 9 9 9 9 8 8 8 8 7 7 7 7 6 6 6 5 6 6 6 5 5 5 5 5 5 5 5 5 5 5 5 5 5 5 5 5 5 5 5 5 5
9 9 9 9 9 9 8 8 8 8 7 7 7 7 7 6 6 6 6 6 5 5 5 5 5 5 5 5 4 4 4 4 5 5 5 5 5 5 5 5 5 5
9 9 9 9 9 9 8 8 8 8 8 8 8 8 7 7 6 6 6 6 6 5 5 5 5 5 5 5 4 4 4 4 4 4 4 5 5 5 5 5 4 5
9 9 9 9 9 9 9 8 8 8 8 8 8 8 8 7 7 6 6 6 6 5 5 5 5 5 5 5 5 4 4 4 4 4 4 4 4 5 5 4 4 4
9 9 9 9 9 9 9 9 8 8 8 8 8 8 7 7 7 7 6 6 6 6 5 5 5 5 5 5 5 5 4 4 3 3 3 4 4 4 4 4 4 4
9 9 9 9 9 9 9 9 8 8 8 8 8 7 7 7 7 7 6 6 6 6 5 5 5 5 5 5 5 5 4 4 3 3 3 3 4 4 4 4 4 4
10 9 9 9 9 9 9 9 8 8 8 8 8 7 7 7 7 6 6 6 6 6 5 5 5 5 5 5 5 4 4 4 3 3 3 3 3 4 4 4 4 4
Height
1566 1564 1562 1561 1559 1558 1557 1555 1553 1551 1550 1548 1547 1546 1544 1543 1541 1539 1538 1536 1535 1533 1532 1531 1529 1528 1527 1525 1524 1522 1520 1519 1517 1516 1515 1513 1512 1511 1510 1509 1509 1509
1565 1563 1561 1560 1559 1558 1556 1555 1553 1552 1550 1549 1547 1546 1544 1543 1541 1539 1537 1535 1534 1533 1531 1530 1528 1527 1525 1524 1522 1521 1519 1517 1516 1514 1513 1512 1510 1509 1508 1507 1506 1506
1564 1562 1561 1560 1558 1557 1556 1555 1553 1552 1550 1549 1547 1546 1544 1543 1541 1539 1537 1535 1533 1531 1530 1529 1527 1526 1524 1523 1521 1519 1518 1516 1514 1512 1511 1510 1508 1507 1506 1504 1503 1502
1563 1562 1560 1559 1558 1557 1556 1554 1553 1552 1550 1549 1547 1546 1544 1542 1540 1538 1536 1534 1532 1531 1529 1527 1526 1524 1523 1521 1520 1518 1516 1515 1513 1511 1509 1508 1507 1505 1504 1502 1501 1500
1563 1561 1560 1559 1558 1556 1555 1554 1552 1551 1550 1548 1547 1545 1543 1542 1540 1538 1536 1534 1532 1530 1528 1526 1525 1523 1521 1520 1518 1516 1515 1513 1511 1509 1508 1506 1505 1503 1502 1500 1498 1497
1562 1561 1560 1559 1557 1556 1554 1553 1551 1550 1549 1547 1546 1544 1543 1541 1539 1537 1535 1533 1531 1529 1527 1525 1524 1522 1520 1518 1517 1515 1513 1511 1510 1508 1506 1504 1503 1501 1500 1498 1496 1495
1561 1560 1558 1557 1556 1555 1553 1552 1550 1549 1547 1546 1545 1543 1541 1539 1538 1536 1534 1532 1530 1528 1526 1524 1522 1520 1518 1517 1515 1513 1511 1510 1508 1506 1505 1503 1501 1499 1498 1496 1495 1493
1560 1559 1558 1556 1555 1553 1552 1551 1549 1548 1546 1545 1543 1541 1540 1538 1536 1534 1533 1531 1529 1527 1525 1523 1521 1519 1517 1515 1513 1511 1510 1508 1506 1505 1503 1501 1499 1497 1496 1494 1493 1491
1559 1558 1557 1555 1554 1552 1551 1549 1548 1546 1545 1543 1541 1540 1538 1536 1535 1533 1531 1529 1527 1525 1523 1521 1520 1518 1516 1514 1512 1510 1508 1506 1505 1503 1501 1499 1497 1496 1494 1492 1491 1489
1558 1557 1556 1554 1553 1551 1549 1548 1547 1545 1543 1542 1540 1539 1537 1535 1533 1531 1529 1528 1526 1524 1522 1520 1518 1516 1514 1513 1511 1509 1507 1505 1503 1501 1500 1498 1496 1494 1492 1491 1489 1487
1557 1556 1554 1553 1551 1550 1548 1547 1545 1544 1542 1540 1539 1537 1535 1533 1531 1529 1527 1526 1524 1522 1520 1518 1516 1515 1513 1511 1509 1508 1506 1504 1502 1500 1498 1496 1495 1493 1491 1489 1487 1485
1556 1554 1553 1552 1550 1549 1547 1546 1544 1542 1541 1539 1537 1535 1533 1531 1529 1527 1526 1524 1522 1520 1519 1517 1515 1513 1512 1510 1508 1506 1504 1502 1500 1498 1496 1495 1493 1491 1489 1487 1485 1483
1554 1553 1552 1550 1549 1547 1546 1544 1542 1541 1539 1537 1535 1533 1531 1529 1527 1526 1524 1522 1520 1519 1517 1515 1513 1512 1510 1508 1506 1504 1502 1500 1498 1496 1494 1492 1491 1489 1487 1485 1483 1481
1553 1552 1551 1549 1547 1546 1544 1543 1541 1539 1537 1535 1533 1531 1529 1527 1525 1524 1522 1520 1519 1517 1516 1514 1512 1510 1508 1506 1505 1503 1501 1498 1496 1494 1492 1490 1488 1486 1485 1483 1481 1479
1552 1551 1549 1548 1546 1544 1543 1541 1539 1538 1535 1533 1532 1530 1528 1526 1524 1522 1521 1519 1518 1516 1514 1513 1511 1509 1507 1505 1503 1501 1499 1497 1494 1492 1490 1488 1486 1484 1482 1480 1478 1476
1551 1549 1548 1546 1545 1543 1542 1540 1538 1536 1534 1532 1530 1529 1527 1525 1523 1521 1520 1518 1516 1515 1513 1511 1509 1507 1506 1504 1501 1499 1497 1495 1493 1491 1488 1486 1484 1481 1479 1477 1475 1474
1550 1548 1547 1545 1544 1542 1541 1539 1537 1535 1533 1531 1529 1527 1526 1524 1522 1520 1519 1517 1515 1513 1512 1510 1508 1506 1504 1502 1500 1498 1495 1493 1491 1489 1487 1484 1482 1479 1477 1475 1472 1471
1549 1547 1545 1544 1543 1541 1539 1538 1536 1533 1531 1529 1527 1526 1524 1522 1521 1519 1517 1516 1514 1512 1510 1508 1507 1505 1503 1501 1499 1496 1494 1492 1489 1487 1485 1483 1481 1478 1475 1473 1470 1468
1547 1546 1544 1543 1541 1539 1538 1536 1534 1532 1530 1528 1526 1524 1522 1521 1519 1518 1516 1514 1512 1510 1509 1507 1505 1503 1501 1499 1497 1495 1493 1490 1488 1486 1483 1481 1479 1476 1474 1471 1468 1465
1545 1544 1542 1541 1539 1537 1536 1534 1532 1530 1528 1526 1524 1522 1520 1518 1517 1515 1514 1512 1511 1509 1507 1505 1503 1501 1499 1497 1495 1493 1491 1489 1486 1484 1482 1479 1477 1474 1472 1469 1467 1464
1543 1542 1540 1539 1537 1535 1533 1532 1530 1528 1526 1524 1522 1520 1518 1516 1514 1513 1511 1510 1508 1506 1504 1502 1501 1499 1497 1495 1493 1491 1489 1487 1484 1482 1480 1477 1475 1472 1470 1468 1465 1462
1541 1540 1538 1536 1535 1533 1531 1530 1528 1526 1524 1522 1520 1519 1517 1514 1512 1511 1509 1507 1506 1503 1501 1500 1498 1497 1494 1492 1490 1489 1487 1484 1482 1480 1477 1475 1473 1470 1468 1466 1463 1461
1538 1537 1536 1534 1533 1531 1530 1528 1527 1525 1523 1521 1519 1517 1515 1513 1511 1509 1507 1505 1503 1501 1499 1497 1496 1494 1492 1490 1488 1486 1484 1482 1479 1477 1475 1473 1470 1468 1466 1463 1461 1459
1536 1535 1534 1532 1531 1529 1527 1526 1524 1523 1521 1519 1517 1515 1513 1511 1509 1507 1505 1503 1501 1499 1497 1495 1493 1491 1490 1488 1486 1483 1481 1479 1477 1474 1472 1470 1468 1465 1463 1461 1459 1457
1534 1533 1531 1530 1528 1526 1525 1523 1521 1520 1518 1517 1515 1513 1510 1508 1506 1504 1503 1501 1499 1497 1495 1493 1491 1489 1487 1485 1483 1481 1479 1477 1475 1472 1470 1468 1465 1463 1460 1458 1456 1454
1532 1530 1528 1527 1525 1523 1522 1520 1519 1517 1516 1514 1512 1510 1508 1506 1504 1502 1500 1498 1497 1495 1493 1490 1488 1486 1485 1483 1480 1478 1477 1475 1473 1470 1467 1465 1463 1460 1458 1455 1453 1451
Wind_Speed
20 17 12 10 11 13 16 18 16 15 15 15 16 19 18 16 16 15 14 15 16 14 13 15 17 18 16 14 14 14 14 15 16 18 17 17 17 17 17 17 17 17
21 15 9 8 10 12 15 16 14 14 16 15 14 16 16 15 17 17 17 18 18 17 17 18 19 19 19 17 16 16 16 17 18 20 20 19 19 19 18 18 19 19
20 15 10 9 9 12 14 14 13 14 16 16 14 15 15 15 17 19 20 20 21 21 20 20 19 19 19 19 18 18 18 20 20 22 22 21 20 20 19 19 19 20
19 16 14 12 10 12 13 13 15 16 16 16 15 16 15 15 17 19 20 20 20 19 18 18 19 18 19 19 19 19 19 20 21 23 24 23 22 21 20 20 21 21
18 15 14 13 12 12 12 12 14 14 14 15 15 15 14 15 16 18 19 19 18 18 18 19 21 21 21 20 19 19 19 20 21 23 25 24 22 21 20 20 21 21
17 14 12 11 10 10 11 11 12 12 12 13 13 13 14 16 17 18 18 17 18 20 21 22 22 21 21 20 19 19 19 20 21 23 25 25 22 20 19 20 20 20
15 13 11 11 11 10 11 12 13 13 13 14 15 15 16 16 16 17 17 17 19 21 22 22 21 20 19 19 19 20 21 22 24 25 24 23 21 19 18 19 20 20
13 12 11 12 12 11 10 11 12 13 14 15 16 16 15 14 15 16 17 19 20 21 21 22 21 21 20 20 21 23 24 24 25 24 22 21 20 19 18 19 20 21
11 12 13 14 12 10 11 12 13 14 15 15 15 15 15 15 16 17 19 21 22 22 22 21 21 21 21 21 22 23 24 23 22 20 19 19 20 20 19 19 20 21
11 13 15 14 13 12 13 14 15 16 15 15 15 16 17 17 18 20 22 23 24 24 22 20 20 20 19 19 20 23 24 23 21 19 18 19 20 20 21 21 21 22
12 14 15 15 14 14 14 15 17 17 17 18 19 19 19 19 20 21 22 23 25 23 20 17 17 18 17 18 19 22 24 24 22 20 19 19 20 21 22 22 23 23
14 16 16 16 16 16 16 18 19 20 21 21 22 21 21 21 21 22 23 23 23 19 16 16 17 18 19 19 19 20 22 24 24 23 22 21 21 21 23 24 24 25
17 17 16 17 17 18 20 22 23 24 24 24 23 23 23 22 22 22 23 22 18 14 14 15 17 20 21 20 19 19 21 23 25 25 24 23 23 23 23 24 24 25
18 18 19 19 20 21 23 25 25 26 26 25 24 23 23 22 22 22 21 17 14 13 15 16 18 20 21 22 21 21 22 23 25 25 25 25 25 24 24 24 24 24
20 21 22 21 22 23 25 26 26 27 27 26 23 21 22 22 21 20 18 15 14 16 18 18 19 20 20 23 24 23 23 23 24 25 25 25 26 26 25 25 25 24
22 23 23 23 23 24 26 27 27 27 27 26 23 20 21 22 21 18 16 16 17 19 20 20 19 18 19 23 26 25 24 24 24 24 25 25 26 27 27 26 26 25
23 25 25 24 23 24 25 26 27 27 27 26 23 19 19 20 20 19 17 17 18 19 20 19 19 19 20 23 26 26 24 23 23 24 24 25 26 27 27 27 27 26
23 25 26 24 22 23 24 25 26 26 27 26 23 20 19 19 19 19 19 18 18 18 18 18 19 20 20 23 25 25 23 22 23 24 25 25 26 26 26 27 27 26
24 25 25 23 23 23 23 24 25 25 25 25 23 20 19 18 17 18 19 19 18 19 18 17 18 20 21 23 25 25 24 24 23 24 25 26 26 26 26 26 27 27
24 25 24 24 24 24 25 25 25 25 24 23 23 22 20 18 16 17 18 18 18 18 18 17 19 20 20 21 23 25 26 25 24 24 25 26 26 26 26 26 26 27
24 24 23 24 25 25 26 26 27 27 26 24 24 24 22 20 17 16 18 19 17 16 18 20 21 21 21 21 23 25 26 27 26 24 24 25 26 26 26 26 26 26
23 23 23 25 26 26 26 26 27 27 27 26 24 24 24 22 19 17 17 20 19 18 19 22 22 22 22 22 23 26 27 28 27 24 24 24 25 26 27 26 25 26
23 23 24 25 26 25 25 25 26 27 27 25 24 24 24 24 21 19 18 20 21 21 21 22 22 22 22 22 23 26 27 27 28 27 25 24 25 26 27 27 25 26
23 23 25 25 25 24 24 25 25 26 26 25 24 24 24 24 23 22 20 19 22 23 23 22 22 22 22 23 26 27 26 26 28 28 26 25 25 27 27 27 26 25
23 24 26 26 25 25 25 25 25 25 25 25 25 24 25 25 24 23 21 20 22 24 24 23 23 22 23 25 27 27 25 26 27 28 27 26 27 27 27 27 27 26
25 26 27 27 27 26 26 27 27 26 25 26 25 24 25 26 25 24 23 21 22 24 25 24 25 25 24 26 26 25 25 25 26 28 28 27 28 28 28 28 28 28
Wind_Direction
4 357 360 5 356 348 351 358 3 1 356 353 356 0 1 1 356 348 345 346 346 349 352 351 348 344 338 332 331 330 330 330 325 322 321 318 315 311 310 310 306 299
7 5 4 8 5 355 356 3 5 0 358 356 356 357 355 354 352 347 343 342 342 340 339 339 338 335 331 328 327 329 329 326 322 319 319 318 316 313 312 312 309 305
14 19 23 18 7 359 0 4 3 358 358 356 351 348 347 346 347 345 342 340 339 339 337 334 332 329 326 323 321 325 331 331 325 319 316 315 316 315 312 309 306 304
20 24 31 32 20 12 12 9 6 3 2 1 356 351 346 341 342 342 342 342 339 338 338 337 334 330 328 323 319 321 328 331 327 322 317 314 314 316 314 310 305 303
22 20 29 35 29 23 15 6 6 8 7 3 360 359 352 342 340 339 338 340 338 336 336 335 333 332 331 327 324 324 325 327 326 324 321 317 313 314 316 316 311 307
23 20 23 29 28 21 9 3 4 3 2 359 355 354 348 341 339 337 334 336 335 334 335 332 330 330 329 327 327 328 327 327 328 325 323 322 316 312 315 318 317 313
19 17 18 20 19 15 9 6 2 356 354 350 347 347 345 341 337 334 333 334 334 334 335 333 328 325 326 327 328 329 327 327 329 326 323 323 321 316 315 318 317 316
17 16 18 18 15 14 11 7 2 356 351 345 344 346 345 342 338 336 335 336 337 336 334 333 328 324 326 329 329 328 327 326 327 326 323 323 325 324 322 319 316 315
18 17 17 15 13 10 3 360 356 352 347 343 342 342 339 336 335 335 336 337 338 336 333 332 330 327 328 330 333 334 333 331 329 327 325 324 326 326 325 322 319 317
18 14 12 9 5 359 354 354 353 350 348 344 341 338 335 332 329 329 331 333 335 335 336 337 335 333 332 333 340 342 340 338 334 328 326 324 323 323 323 323 322 319
11 7 3 360 355 352 350 351 350 347 344 341 338 336 333 332 331 331 331 331 332 334 340 347 347 343 340 340 342 342 340 339 337 331 326 322 318 317 317 318 319 318
5 360 356 354 351 349 349 348 346 344 342 341 340 337 335 335 336 337 337 336 334 334 342 351 352 347 342 339 339 340 338 336 335 332 328 323 318 315 314 314 315 315
4 358 354 352 350 349 347 346 346 345 346 345 343 341 339 339 339 339 340 340 340 343 349 351 350 345 341 336 334 337 336 332 331 330 327 324 320 317 316 315 314 313
360 355 352 350 347 347 346 346 348 349 349 348 345 345 346 345 343 341 342 347 353 354 352 349 346 344 343 340 337 335 331 329 328 327 326 324 321 319 318 317 316 314
354 352 351 348 345 347 347 348 349 350 352 353 352 354 357 357 353 347 348 358 1 355 350 345 341 342 344 343 341 338 332 329 328 328 327 325 323 321 321 320 319 316
349 350 351 349 349 350 350 349 347 346 350 354 355 359 4 4 2 358 357 358 356 354 352 348 343 342 343 343 342 340 336 333 332 330 328 326 325 325 324 323 321 317
345 347 350 353 356 357 354 353 351 348 350 353 353 356 1 3 2 1 358 354 350 351 354 351 347 345 343 342 341 339 338 337 336 334 332 330 329 329 328 327 323 320
343 345 348 353 357 358 356 355 355 353 351 349 349 351 355 357 357 356 354 352 350 350 350 348 346 343 341 340 341 339 337 337 338 337 335 333 332 332 332 331 328 323
341 341 345 348 348 349 349 348 351 354 351 347 347 350 351 350 351 351 349 348 349 348 344 341 341 342 339 337 339 340 337 335 336 336 336 334 333 333 333 333 331 327
337 336 340 344 344 342 341 341 343 348 350 349 350 351 350 347 347 348 345 342 342 342 338 333 334 337 338 335 336 337 336 334 333 333 334 333 333 334 334 334 334 332
333 335 338 342 342 339 338 338 339 342 346 347 349 350 349 346 343 341 339 336 332 329 328 327 328 330 332 332 332 333 333 332 331 330 331 330 331 334 335 333 334 334
330 334 338 340 339 338 337 337 337 339 341 342 343 345 345 343 339 335 334 332 326 319 318 322 325 325 326 328 330 332 332 332 332 330 329 327 329 332 334 334 333 333
328 331 335 336 336 335 334 332 333 336 337 336 337 338 338 339 336 332 331 330 323 314 311 315 319 322 324 326 330 332 331 329 330 331 329 326 326 329 332 334 333 332
325 327 328 330 331 330 327 324 325 329 332 333 332 331 331 332 332 328 325 326 322 312 306 308 313 317 321 326 331 334 330 326 327 329 329 327 325 326 328 330 331 331
322 322 322 323 324 323 320 317 317 320 326 330 330 330 328 327 326 324 319 318 318 312 305 302 306 311 319 325 332 336 331 324 323 326 327 327 327 327 326 327 327 328
320 318 316 317 318 318 314 311 312 315 320 325 328 329 327 322 321 321 317 314 313 309 303 300 301 307 316 324 331 337 334 327 323 324 326 328 329 329 327 325 325 325